Content
SEND FEEDBACK

Daily
Averages
Monthly
Summary
United States of America

ADELPHIA, NEW JERSEY


Home > North America > United States > New Jersey
Elevation: 161 feet     Latitude: 40 16N     Longitude: 074 15W

WEATHER
 
SELECT A DAY
Number of Records: 458,281;   Date Range: 1/1/95 - 12/18/14
 
SHARE

PRINT THIS DATA

[ ← Previous Day ]
WEATHER ALMANAC - JANUARY 23, 2013
[ Next Day → ]
[ °C ]   °F
Weather ElementAverageHighLow
Temperature14.3 °F19.4 °F (11:55 am)10.4 °F (3:55 am)
Dewpoint-0.6 °F5 °F (11:15 pm)-5.8 °F (1:35 am)
Humidity52.8 %79 % (11:15 pm)36 % (3:15 pm)
Barometer30.21 in30.26 in (8:35 am)30.17 in (1:15 pm)
Wind Speed9.5 mph19.6 mph (11:35 am)
Wind Gust25.3 mph (11:35 am)
Weather ElementAverage
Visibility10 mi
Wind DirectionWSW (261.7 °)

Weather ElementTotal
Precipitation---
Heating Degree Days50.1 (Base 65)
Averaged from 69 records on January 23, 2013
WEATHER CONDITIONS BREAKOUT
WIND DIRECTION BREAKOUT
WEATHER BY HOUR - JANUARY 23, 2013
[ °C ]   °F
Local TimeTemperatureDewpointHumidityBarometerVisibilityWind DirectionWind SpeedGust SpeedPrecipitationEventsConditions
12:35 AM12.2 °F-0.4 °F57 %30.21 in10.0 miWest (280°)12.7 mph17.3 mphClear
12:55 AM12.2 °F-4.0 °F48 %30.21 in10.0 miWNW (290°)10.4 mph19.6 mphClear
1:15 AM12.2 °F-2.2 °F53 %30.21 in10.0 miWest (280°)11.5 mphClear
1:35 AM12.2 °F-5.8 °F45 %30.22 in10.0 miWNW (290°)9.2 mphClear
1:55 AM12.2 °F-5.8 °F45 %30.22 in10.0 miWest (280°)9.2 mph16.1 mphClear
2:15 AM12.2 °F-5.8 °F45 %30.22 in10.0 miWest (280°)9.2 mphClear
2:35 AM12.2 °F-4.0 °F48 %30.23 in10.0 miWest (280°)12.7 mph18.4 mphClear
2:55 AM12.2 °F-4.0 °F48 %30.23 in10.0 miWNW (290°)11.5 mphClear
3:15 AM12.2 °F-4.0 °F48 %30.23 in10.0 miWest (280°)8.1 mphClear
3:35 AM12.2 °F-4.0 °F48 %30.22 in10.0 miWest (280°)9.2 mphClear
3:55 AM10.4 °F-2.2 °F57 %30.22 in10.0 miWest (270°)9.2 mphClear
4:15 AM10.4 °F-2.2 °F57 %30.22 in10.0 miWest (280°)8.1 mphClear
4:35 AM10.4 °F-2.2 °F57 %30.22 in10.0 miWest (280°)9.2 mphClear
4:55 AM10.4 °F-2.2 °F57 %30.23 in10.0 miWest (270°)8.1 mphClear
5:15 AM10.4 °F-2.2 °F57 %30.23 in10.0 miWest (280°)6.9 mphClear
5:35 AM10.4 °F-2.2 °F57 %30.23 in10.0 miWest (280°)9.2 mphClear
5:55 AM10.4 °F-2.2 °F57 %30.23 in10.0 miWNW (290°)8.1 mphClear
6:15 AM10.4 °F-2.2 °F57 %30.24 in10.0 miWest (280°)8.1 mphClear
6:35 AM10.4 °F-2.2 °F57 %30.23 in10.0 miWest (280°)6.9 mphClear
7:15 AM10.4 °F-0.4 °F62 %30.25 in10.0 miWest (280°)6.9 mphClear
7:35 AM10.4 °F-0.4 °F62 %30.25 in10.0 miWest (280°)8.1 mphClear
7:55 AM10.4 °F-0.4 °F62 %30.25 in10.0 miWest (280°)9.2 mphClear
8:15 AM12.2 °F-0.4 °F57 %30.25 in10.0 miWest (270°)10.4 mphClear
8:35 AM12.2 °F-0.4 °F57 %30.26 in10.0 miWest (280°)12.7 mphClear
8:55 AM12.2 °F-0.4 °F57 %30.26 in10.0 miWNW (290°)10.4 mph18.4 mphClear
9:15 AM15.8 °F-0.4 °F49 %30.26 in10.0 miWest (280°)15.0 mph19.6 mphClear
9:35 AM15.8 °F-0.4 °F49 %30.26 in10.0 miWest (280°)11.5 mphClear
9:55 AM15.8 °F-0.4 °F49 %30.26 in10.0 miWest (280°)15.0 mphClear
10:15 AM17.6 °F-2.2 °F42 %30.26 in10.0 miWest (270°)15.0 mphClear
10:35 AM17.6 °F-0.4 °F45 %30.26 in10.0 miWest (270°)13.8 mph20.7 mphClear
10:55 AM17.6 °F-2.2 °F42 %30.25 in10.0 miWest (270°)16.1 mph20.7 mphClear
11:15 AM17.6 °F-2.2 °F42 %30.24 in10.0 miWNW (300°)17.3 mph20.7 mphPartly Cloudy
11:35 AM17.6 °F-0.4 °F45 %30.23 in10.0 miWest (260°)19.6 mph25.3 mphMostly Cloudy
11:55 AM19.4 °F-2.2 °F39 %30.22 in10.0 miWest (280°)11.5 mph24.2 mphMostly Cloudy
12:15 PM19.4 °F-0.4 °F42 %30.21 in10.0 miWest (280°)15.0 mphOvercast
12:35 PM19.4 °F-2.2 °F39 %30.20 in10.0 miWest (260°)15.0 mph21.9 mphOvercast
12:55 PM19.4 °F-2.2 °F39 %30.19 in10.0 miWNW (290°)16.1 mph24.2 mphOvercast
1:15 PM19.4 °F-0.4 °F42 %30.17 in10.0 miWNW (290°)11.5 mph18.4 mphMostly Cloudy
1:35 PM17.6 °F-4.0 °F38 %30.17 in10.0 miWNW (300°)10.4 mph21.9 mphMostly Cloudy
1:55 PM17.6 °F-2.2 °F42 %30.18 in10.0 miWNW (290°)18.4 mphMostly Cloudy
2:15 PM19.4 °F-0.4 °F42 %30.17 in10.0 miWest (270°)15.0 mph21.9 mphMostly Cloudy
2:35 PM19.4 °F-2.2 °F39 %30.17 in10.0 miWNW (290°)15.0 mph19.6 mphOvercast
2:55 PM19.4 °F-0.4 °F42 %30.17 in10.0 miWest (260°)19.6 mph25.3 mphOvercast
3:15 PM19.4 °F-4.0 °F36 %30.18 in10.0 miWNW (300°)15.0 mph18.4 mphScattered Clouds
3:35 PM17.6 °F-2.2 °F42 %30.18 in10.0 miWest (280°)11.5 mph24.2 mphClear
3:55 PM17.6 °F-2.2 °F42 %30.18 in10.0 miWest (280°)11.5 mph18.4 mphPartly Cloudy
4:15 PM17.6 °F-0.4 °F45 %30.18 in10.0 miWNW (300°)12.7 mphMostly Cloudy
4:35 PM17.6 °F-0.4 °F45 %30.18 in10.0 miNW (320°)15.0 mphOvercast
4:55 PM17.6 °F1.4 °F49 %30.18 in10.0 miWNW (300°)8.1 mphOvercast
5:15 PM17.6 °F-0.4 °F45 %30.19 in10.0 miWNW (290°)8.1 mphMostly Cloudy
5:35 PM17.6 °F1.4 °F49 %30.20 in10.0 miWNW (290°)11.5 mphPartly Cloudy
5:55 PM15.8 °F3.2 °F58 %30.20 in10.0 miWNW (290°)6.9 mphClear
6:15 PM15.8 °F3.2 °F58 %30.21 in10.0 miWNW (300°)4.6 mphClear
6:35 PM15.8 °F3.2 °F58 %30.21 in10.0 miWNW (290°)5.8 mphClear
6:55 PM15.8 °F3.2 °F58 %30.21 in10.0 miWNW (290°)5.8 mphClear
7:15 PM15.8 °F1.4 °F53 %30.20 in10.0 miWNW (290°)3.5 mphClear
7:35 PM14.0 °F3.2 °F62 %30.20 in10.0 miWNW (290°)3.5 mphClear
7:55 PM14.0 °F1.4 °F57 %30.20 in10.0 miWNW (290°)3.5 mphClear
8:15 PM12.2 °F3.2 °F67 %30.20 in10.0 miCalmClear
8:35 PM12.2 °F3.2 °F67 %30.20 in10.0 miWest (270°)3.5 mphClear
8:55 PM14.0 °F1.4 °F57 %30.20 in10.0 miWest (270°)3.5 mphClear
9:15 PM12.2 °F3.2 °F67 %30.19 in10.0 miWest (270°)3.5 mphClear
9:35 PM10.4 °F1.4 °F67 %30.19 in10.0 miCalmClear
9:55 PM12.2 °F3.2 °F67 %30.20 in10.0 miWest (270°)3.5 mphClear
10:15 PM12.2 °F3.2 °F67 %30.20 in10.0 miWest (270°)3.5 mphClear
10:35 PM12.2 °F3.2 °F67 %30.20 in10.0 miWest (270°)3.5 mphClear
11:15 PM10.4 °F5.0 °F79 %30.19 in10.0 miCalmOvercast
11:35 PM10.4 °F5.0 °F79 %30.19 in10.0 miCalmOvercast
11:55 PM10.4 °F5.0 °F79 %30.19 in10.0 miCalmOvercast
Hourly data recorded from KBLM, located miles away from Adelphia, New Jersey







STORIES FROM OUR PARTNERS